Location: McFarlands Corners
(41.4117°N, 81.3382°W)
Time: 11:20:17
(UTC+00:00)

SR - Visible Passes

Search period start: 16 February 2026 00:00
Search period end: 26 February 2026 00:00
Orbit: 574 x 847 km, 66.7° (Epoch: 15 February)

Date Brightness Start Highest point End Pass type
(mag) Time Alt. Az. Time Alt. Az. Time Alt. Az.
16 Feb ? 09:41:23 34° E 09:41:23 34° E 09:44:43 10° NE visible
16 Feb ? 11:20:28 17° W 11:22:29 23° NW 11:26:02 10° N visible
17 Feb ? 10:27:33 51° NW 10:27:33 51° NW 10:31:35 10° NNE visible
18 Feb ? 09:34:30 28° NE 09:34:30 28° NE 09:36:40 10° NE visible
18 Feb ? 11:13:34 15° WNW 11:14:28 16° NW 11:17:15 10° N visible
19 Feb ? 10:20:24 27° NNW 10:20:24 27° NNW 10:23:08 10° NNE visible
20 Feb ? 09:27:08 19° NNE 09:27:08 19° NNE 09:28:27 10° NNE visible
20 Feb ? 11:06:11 11° NW 11:06:31 11° NW 11:08:00 10° NNW visible
21 Feb ? 10:12:51 17° NNW 10:12:51 17° NNW 10:14:33 10° N visible
22 Feb ? 09:19:28 14° NNE 09:19:28 14° NNE 09:20:07 10° NNE visible
23 Feb ? 10:05:03 12° NNW 10:05:03 12° NNW 10:05:44 10° N visible
24 Feb ? 09:11:34 10° NNE 09:11:34 10° NNE 09:11:38 10° NNE visible
